Date String (YYYY-MM-DD hh:mm:ss) UTC,Instrument flags,absolute air pressure of the measurement (hPa),sample flow rate (lpm),inlet stack bypass flow (lpm),air temperature of the measurement (°C),ambient temperature measured by the external sensor (°C),aerosol sample conditioner tube jacket temperature (°C),OPC LED temperature (°C),internal box temperature (°C),relative humidity of the measurement (%),span deviation,mass concentration of particles derived from Lorenz-Mie calculation of OPC scattering (μg/m³),mass concentration of particles derived from Lorenz-Mie calculation of OPC scattering (μg/m³),mass concentration of particles derived from Lorenz-Mie calculation of OPC scattering (μg/m³)
DateTimeUTC,F1_M11,P_M11,Q1_M11,Q2_M11,T1_M11,T2_M11,T3_M11,T4_M11,T5_M11,U1_M11,ZSPAN_M11,X2_M11,X0_M11,X1_M11
2024-05-10 01:00:00,SystemResetWarning,0834.8,5.00,000.00,024.9,024.4,000.0,033.1,026.8,021.3,0000.0,0001.50,0004.70,0001.09
2024-05-10 01:01:00,SystemResetWarning,0835.0,5.00,000.00,025.0,024.5,000.0,033.1,026.8,021.4,0000.0,0001.48,0004.34,0001.09
2024-05-10 01:02:00,SystemResetWarning,0835.1,5.00,000.00,025.0,024.5,000.0,033.1,026.9,021.3,0000.0,0001.50,0003.92,0001.11
2024-05-10 01:03:00,SystemResetWarning,0834.9,5.00,000.00,025.1,024.6,000.0,033.1,026.9,021.3,0000.0,0001.50,0003.94,0001.14
2024-05-10 01:04:00,SystemResetWarning,0834.7,5.00,000.00,025.1,024.6,000.0,033.2,026.9,021.2,0000.0,0001.50,0003.93,0001.15
2024-05-10 01:05:00,SystemResetWarning,0834.6,5.00,000.00,025.1,024.7,000.0,033.2,026.9,021.2,0000.0,0001.47,0003.84,0001.16
2024-05-10 01:06:00,SystemResetWarning,0834.6,5.00,000.00,025.1,024.7,000.0,033.2,027.0,021.2,0000.0,0001.47,0002.27,0001.16
2024-05-10 01:07:00,SystemResetWarning,0834.9,5.00,000.00,025.2,024.7,000.0,033.2,027.0,021.2,0000.0,0001.51,0002.27,0001.17
2024-05-10 01:08:00,SystemResetWarning,0835.0,5.00,000.00,025.2,024.8,000.0,033.3,027.1,021.2,0000.0,0001.51,0002.26,0001.19
2024-05-10 01:09:00,SystemResetWarning,0835.2,5.00,000.00,025.2,024.8,000.0,033.3,027.1,021.1,0000.0,0001.51,0002.26,0001.20
2024-05-10 01:10:00,SystemResetWarning,0835.1,5.00,000.00,025.3,024.8,000.0,033.3,027.1,021.1,0000.0,0001.51,0002.24,0001.23
2024-05-10 01:11:00,SystemResetWarning,0835.0,5.00,000.00,025.3,024.8,000.0,033.3,027.1,021.0,0000.0,0001.51,0002.14,0001.25
2024-05-10 01:12:00,SystemResetWarning,0835.0,5.00,000.00,025.3,024.9,000.0,033.4,027.1,020.8,0000.0,0001.51,0002.07,0001.27
2024-05-10 01:13:00,SystemResetWarning,0834.8,5.00,000.00,025.3,024.9,000.0,033.4,027.1,020.7,0000.0,0001.53,0002.10,0001.28
2024-05-10 01:14:00,SystemResetWarning,0834.7,5.00,000.00,025.3,024.9,000.0,033.4,027.1,020.8,0000.0,0001.54,0002.08,0001.29
2024-05-10 01:15:00,SystemResetWarning,0835.0,4.99,000.00,025.4,024.9,000.0,033.4,027.2,020.8,0000.0,0001.59,0002.26,0001.30
2024-05-10 01:16:00,SystemResetWarning,0835.4,4.99,000.00,025.4,024.9,000.0,033.4,027.2,021.0,0000.0,0001.62,0002.31,0001.33
2024-05-10 01:17:00,SystemResetWarning,0834.9,5.00,000.00,025.4,025.0,000.0,033.5,027.2,020.9,0000.0,0001.66,0002.92,0001.36
2024-05-10 01:18:00,SystemResetWarning,0834.9,5.01,000.00,025.4,025.0,000.0,033.5,027.2,020.9,0000.0,0001.69,0003.09,0001.39
2024-05-10 01:19:00,SystemResetWarning,0834.9,5.00,000.00,025.5,025.0,000.0,033.5,027.3,021.1,0000.0,0001.68,0003.02,0001.41
2024-05-10 01:20:00,SystemResetWarning,0834.8,4.99,000.00,025.5,025.0,000.0,033.5,027.3,021.0,0000.0,0001.70,0003.56,0001.44
2024-05-10 01:21:00,SystemResetWarning,0835.1,4.99,000.00,025.5,025.0,000.0,033.6,027.3,020.9,0000.0,0001.74,0003.92,0001.46
2024-05-10 01:22:00,SystemResetWarning,0835.3,4.99,000.00,025.5,025.0,000.0,033.6,027.3,020.7,0000.0,0001.80,0004.00,0001.51
2024-05-10 01:23:00,SystemResetWarning,0835.4,5.01,000.00,025.5,025.1,000.0,033.6,027.4,020.9,0000.0,0001.88,0004.46,0001.57
2024-05-10 01:24:00,SystemResetWarning,0835.2,5.02,000.00,025.6,025.1,000.0,033.6,027.4,020.7,0000.0,0001.96,0006.37,0001.63
2024-05-10 01:25:00,SystemResetWarning,0835.3,4.98,000.00,025.5,024.1,000.0,033.7,026.8,020.7,0000.0,0002.05,0006.49,0001.68
2024-05-10 01:26:00,SystemResetWarning,0834.8,5.01,000.00,025.0,021.9,000.0,033.7,025.7,021.5,0000.0,0002.14,0006.53,0001.74
2024-05-10 01:27:00,SystemResetWarning,0834.8,5.01,000.00,024.7,021.6,000.0,033.7,025.4,022.2,0000.0,0002.25,0006.74,0001.80
2024-05-10 01:28:00,SystemResetWarning,0835.3,4.99,000.00,024.5,021.9,000.0,033.5,025.5,022.4,0000.0,0002.34,0006.51,0001.86
2024-05-10 01:29:00,SystemResetWarning,0835.0,5.00,000.00,024.5,022.3,000.0,033.3,025.7,022.0,0000.0,0002.36,0006.34,0001.89
2024-05-10 01:30:00,SystemResetWarning,0835.0,5.01,000.00,024.5,022.6,000.0,033.2,025.9,022.2,0000.0,0002.41,0006.38,0001.94
2024-05-10 01:31:00,SystemResetWarning,0835.0,5.00,000.00,024.5,023.0,000.0,033.2,026.1,022.2,0000.0,0002.48,0006.10,0001.99
2024-05-10 01:32:00,SystemResetWarning,0835.0,4.99,000.00,024.6,023.2,000.0,033.1,026.2,022.6,0000.0,0002.54,0005.73,0002.03
2024-05-10 01:33:00,SystemResetWarning,0835.0,5.00,000.00,024.6,023.4,000.0,033.1,026.3,022.9,0000.0,0002.57,0005.83,0002.05
2024-05-10 01:34:00,SystemResetWarning,0835.0,5.01,000.00,024.6,023.6,000.0,033.0,026.4,022.5,0000.0,0002.57,0005.86,0002.06
2024-05-10 01:35:00,SystemResetWarning,0835.0,5.00,000.00,024.7,023.8,000.0,033.0,026.4,022.2,0000.0,0002.57,0003.96,0002.06
2024-05-10 01:36:00,SystemResetWarning,0835.0,4.99,000.00,024.7,023.9,000.0,033.0,026.4,022.6,0000.0,0002.58,0003.94,0002.07
2024-05-10 01:37:00,SystemResetWarning,0835.0,5.00,000.00,024.7,024.0,000.0,033.0,026.5,022.6,0000.0,0002.55,0003.87,0002.10
2024-05-10 01:38:00,SystemResetWarning,0835.1,5.00,000.00,024.8,024.1,000.0,033.0,026.6,022.6,0000.0,0002.53,0003.80,0002.11
2024-05-10 01:39:00,SystemResetWarning,0835.1,5.00,000.00,024.8,024.2,000.0,033.0,026.6,022.6,0000.0,0002.52,0003.89,0002.11
2024-05-10 01:40:00,SystemResetWarning,0835.1,5.00,000.00,024.8,024.2,000.0,033.0,026.6,022.7,0000.0,0002.55,0005.60,0002.13
2024-05-10 01:41:00,SystemResetWarning,0835.1,5.00,000.00,024.9,024.3,000.0,033.0,026.7,022.7,0000.0,0002.63,0005.81,0002.14
2024-05-10 01:42:00,SystemResetWarning,0835.1,5.00,000.00,024.9,024.3,000.0,033.0,026.7,022.5,0000.0,0002.64,0005.87,0002.15
2024-05-10 01:43:00,SystemResetWarning,0835.1,5.00,000.00,024.9,024.4,000.0,033.1,026.7,022.4,0000.0,0002.65,0005.98,0002.16
2024-05-10 01:44:00,SystemResetWarning,0835.2,5.00,000.00,025.0,024.4,000.0,033.1,026.7,022.5,0000.0,0002.64,0006.26,0002.18
2024-05-10 01:45:00,SystemResetWarning,0835.1,5.00,000.00,025.0,024.5,000.0,033.1,026.8,022.5,0000.0,0002.66,0006.80,0002.21
2024-05-10 01:46:00,SystemResetWarning,0835.1,5.00,000.00,025.0,024.5,000.0,033.1,026.8,022.3,0000.0,0002.69,0006.77,0002.23
2024-05-10 01:47:00,SystemResetWarning,0835.2,5.00,000.00,025.0,024.5,000.0,033.1,026.8,022.2,0000.0,0002.70,0006.68,0002.23
2024-05-10 01:48:00,SystemResetWarning,0835.2,5.00,000.00,025.1,024.6,000.0,033.1,026.9,022.3,0000.0,0002.70,0006.66,0002.22
2024-05-10 01:49:00,SystemResetWarning,0835.2,5.00,000.00,025.1,024.6,000.0,033.2,026.9,022.3,0000.0,0002.69,0006.61,0002.23
2024-05-10 01:50:00,SystemResetWarning,0835.2,4.99,000.00,025.1,024.6,000.0,033.2,026.9,022.1,0000.0,0002.69,0006.38,0002.24
2024-05-10 01:51:00,SystemResetWarning,0835.2,4.99,000.00,025.1,024.6,000.0,033.2,026.9,022.0,0000.0,0002.68,0005.17,0002.24
2024-05-10 01:52:00,SystemResetWarning,0835.3,4.99,000.00,025.2,024.6,000.0,033.2,026.9,021.9,0000.0,0002.65,0004.53,0002.24
2024-05-10 01:53:00,SystemResetWarning,0835.3,5.00,000.00,025.2,024.7,000.0,033.2,027.0,021.9,0000.0,0002.65,0004.56,0002.24
2024-05-10 01:54:00,SystemResetWarning,0835.3,5.01,000.00,025.2,024.7,000.0,033.3,027.0,022.0,0000.0,0002.64,0004.40,0002.24
2024-05-10 01:55:00,SystemResetWarning,0835.3,5.01,000.00,025.2,024.7,000.0,033.3,027.0,022.0,0000.0,0002.63,0004.09,0002.25
2024-05-10 01:56:00,SystemResetWarning,0835.3,4.99,000.00,025.2,024.7,000.0,033.3,027.0,021.8,0000.0,0002.66,0003.54,0002.25
2024-05-10 01:57:00,SystemResetWarning,0835.3,4.99,000.00,025.3,024.7,000.0,033.3,027.0,022.1,0000.0,0002.66,0003.51,0002.25
2024-05-10 01:58:00,SystemResetWarning,0835.3,4.99,000.00,025.3,024.7,000.0,033.3,027.0,022.2,0000.0,0002.65,0003.52,0002.26
2024-05-10 01:59:00,SystemResetWarning,0835.3,5.00,000.00,025.3,024.8,000.0,033.4,027.1,022.2,0000.0,0002.66,0003.62,0002.27
